Wind_Speed
8 8 9 11 12 13 13 13 12 13 14 15 15 15 15 15 16 17 17 17 17 18 18 17 17 17 17 18 18 18 18 18 17 17 18 19 19 19 18 19 19 17 18 17
8 9 10 11 12 12 13 13 12 13 15 15 16 16 17 17 16 16 17 18 18 18 18 18 17 17 17 18 18 19 19 19 18 19 19 19 19 19 19 18 17 18 17 16
9 9 10 10 11 12 13 13 14 15 15 15 16 16 16 16 16 17 17 18 18 19 19 19 18 17 18 19 19 20 20 20 19 19 19 19 19 19 19 19 18 18 17 16
9 9 10 11 12 12 13 12 14 15 16 16 16 16 16 15 15 16 17 17 18 19 20 20 19 18 19 21 20 21 21 20 20 20 19 18 19 19 19 19 18 18 17 16
9 10 11 11 11 12 12 12 13 14 16 16 17 18 16 15 14 15 16 17 18 18 18 18 18 19 20 21 21 21 22 22 21 20 20 20 19 18 19 19 18 17 16 17
10 11 11 10 11 11 11 12 13 13 14 14 14 15 15 15 14 15 16 16 17 17 18 18 18 18 18 19 19 20 22 21 20 19 20 20 18 17 18 17 17 16 16 17
10 10 10 10 10 11 11 11 12 12 13 13 14 15 14 14 14 14 15 16 16 17 18 19 19 19 19 18 18 18 18 18 18 18 18 17 18 18 18 17 17 17 16 16
9 9 9 9 9 10 10 10 11 13 13 13 13 13 12 13 12 13 14 15 15 16 17 18 19 18 18 18 17 17 16 15 16 17 17 17 18 18 18 18 17 17 17 17
9 10 10 9 8 8 8 8 9 11 12 12 11 11 11 12 12 13 13 13 14 15 16 17 17 17 17 17 17 16 15 14 15 15 15 15 16 16 16 16 16 17 17 17
9 9 9 9 8 8 8 8 9 9 10 11 11 11 11 11 11 12 12 12 13 14 15 15 15 16 16 16 16 15 14 14 14 13 13 14 14 14 15 15 15 16 17 17
8 8 8 8 8 8 7 7 8 9 10 10 10 10 11 12 12 11 12 13 13 13 14 14 15 15 14 15 15 15 14 13 12 12 13 14 13 13 14 14 14 15 16 16
8 8 7 8 8 8 7 6 8 8 9 9 10 9 10 11 11 11 12 13 12 13 13 14 14 13 13 13 14 13 13 13 12 12 12 12 11 12 13 13 14 14 14 15
8 8 7 7 7 7 6 5 6 7 8 7 8 8 8 9 10 11 12 12 12 13 14 14 14 13 13 13 12 11 11 12 11 11 11 10 10 10 10 10 11 12 13 14
8 7 7 7 7 7 6 6 7 7 7 7 7 8 8 8 8 9 10 11 12 13 13 13 13 11 11 10 10 10 9 9 9 8 8 8 8 8 9 10 11 12 13 14
8 7 7 7 7 6 6 6 7 7 7 6 7 8 7 7 8 9 10 12 12 12 12 11 10 10 9 9 8 8 8 7 7 6 6 7 7 7 8 9 11 12 12 12
8 6 6 6 7 6 6 7 7 6 6 6 7 7 7 8 8 9 10 11 11 11 11 10 10 9 9 8 8 8 7 6 6 5 6 6 7 7 8 9 10 11 10 11
8 7 6 6 6 6 7 8 7 6 6 6 6 7 7 7 8 9 11 12 12 11 11 11 9 9 8 8 8 8 8 7 6 6 6 6 6 7 7 8 9 10 9 10
8 8 7 6 6 6 7 8 7 6 5 5 6 7 7 8 8 9 10 10 10 10 10 10 9 9 8 8 8 7 7 7 6 6 6 6 6 7 8 9 9 10 10 10
8 8 8 7 7 6 7 8 7 6 5 6 6 7 7 7 8 8 9 9 10 10 10 10 10 9 8 7 8 7 7 7 7 7 7 7 7 7 8 8 9 9 10 10
9 8 9 8 8 8 8 9 8 7 5 6 6 6 7 8 7 8 9 9 9 9 10 10 10 9 8 8 8 8 7 6 6 6 7 7 7 7 7 8 8 9 9 10
8 8 8 8 8 8 9 9 8 7 5 5 6 7 8 8 8 8 8 8 9 9 10 10 10 9 8 8 8 8 7 6 6 7 7 6 6 6 7 7 8 8 9 10
9 8 8 8 8 7 8 9 7 6 5 6 7 7 8 8 7 8 8 9 9 9 9 9 9 8 8 7 7 7 7 6 6 6 6 6 6 7 7 8 8 8 9 10
8 8 8 8 7 7 8 8 7 7 7 7 8 8 8 8 7 8 8 9 9 9 8 8 9 8 8 7 7 7 7 7 7 6 6 6 6 7 8 8 8 9 10 11
8 8 8 8 8 8 8 8 7 7 7 7 8 8 8 8 7 8 8 8 8 8 8 8 8 9 9 8 7 7 7 7 7 6 7 7 7 8 8 9 9 9 10 11
9 9 9 9 9 9 9 9 9 8 9 8 8 8 8 8 8 8 8 8 8 8 8 8 9 8 8 8 8 7 8 8 7 7 7 7 7 8 8 9 9 10 11 12
10 10 10 9 9 9 10 10 10 10 10 10 9 9 9 9 8 8 8 8 7 7 8 8 8 8 8 8 8 8 8 8 7 7 7 7 8 8 9 9 10 11 12 13
Wind_Direction
265 263 262 262 263 262 262 264 263 258 259 262 262 261 264 268 271 273 272 276 281 285 286 281 276 275 272 270 271 273 274 275 273 271 272 270 269 267 261 261 266 272 273 269
274 269 270 269 268 264 263 267 267 264 261 265 266 266 267 270 275 275 272 275 283 284 283 281 279 276 274 274 277 277 276 273 270 270 272 268 265 265 266 265 268 274 273 268
288 285 280 274 268 266 264 263 263 263 263 265 266 267 271 274 277 280 277 278 282 283 284 282 280 278 279 280 281 277 277 276 272 270 268 266 265 266 266 265 268 269 271 273
287 286 280 276 275 270 267 264 265 265 265 266 268 271 270 274 277 278 279 283 285 285 285 285 282 277 280 283 285 280 276 274 272 270 268 264 266 262 263 267 266 267 270 272
291 287 283 282 284 278 273 270 268 269 268 268 269 269 270 275 277 279 280 282 286 286 287 287 287 286 284 285 285 282 277 272 269 266 265 265 262 261 263 267 265 268 271 274
293 293 292 292 291 285 279 271 266 267 269 269 269 269 272 278 284 286 285 282 283 286 289 289 289 292 290 291 292 286 280 275 270 268 267 265 262 263 262 266 267 272 274 275
299 298 298 295 292 286 281 275 270 268 269 272 274 276 278 280 284 287 286 283 285 289 292 292 291 292 292 293 293 292 287 278 273 269 269 266 265 267 266 266 269 271 275 276
303 300 302 303 301 296 288 280 278 277 278 278 278 279 284 287 282 284 285 285 286 291 293 294 295 293 291 290 291 292 292 284 276 274 272 269 269 268 269 270 272 273 274 276
308 307 309 308 306 300 299 296 289 285 282 281 285 284 287 289 283 281 286 290 292 294 295 294 294 293 292 291 292 294 294 290 282 276 275 276 270 266 269 268 270 273 274 275
315 317 316 314 311 308 309 309 301 293 287 285 287 288 288 289 292 291 290 297 300 302 300 297 295 294 291 292 292 290 290 289 287 280 276 279 272 265 265 269 271 274 276 279
319 323 323 319 319 320 315 313 306 301 296 290 293 295 295 297 299 299 299 304 310 307 307 303 300 299 294 294 296 295 292 292 288 280 279 278 275 270 268 273 277 278 278 280
322 326 327 329 330 330 328 317 313 304 303 300 295 300 303 304 308 306 307 308 310 311 312 313 310 306 301 297 298 296 291 291 290 285 282 280 278 276 277 278 282 280 279 282
325 328 323 325 338 342 338 325 326 319 312 306 303 309 307 309 312 311 310 311 311 311 313 313 311 307 305 300 298 295 290 289 290 289 289 285 279 279 283 284 287 286 286 287
329 327 324 330 342 341 340 334 332 327 319 316 317 317 320 319 319 317 316 319 321 318 317 316 316 314 311 305 303 302 297 298 296 291 287 285 286 288 291 292 294 292 292 294
336 333 330 328 337 346 346 339 333 335 333 332 324 318 326 321 317 320 324 326 327 328 329 330 328 325 320 315 312 311 308 309 306 296 295 293 297 294 295 296 297 299 295 294
334 338 331 328 333 339 340 336 333 335 334 336 338 336 330 327 322 321 327 330 331 332 337 339 338 334 328 322 324 325 322 320 319 313 303 300 305 301 298 301 306 307 302 301
328 331 329 328 329 327 337 339 337 331 329 335 338 341 337 329 326 328 336 337 336 337 341 344 341 336 337 331 329 331 328 325 328 327 318 307 306 307 308 309 312 313 311 311
324 324 326 327 328 332 334 337 338 332 329 333 334 336 341 339 335 334 338 340 343 345 347 346 343 341 342 341 337 335 334 331 326 324 325 317 309 310 310 309 311 315 318 320
320 322 322 325 327 330 332 336 341 337 321 318 323 329 337 339 336 336 338 340 345 349 351 350 348 348 353 355 351 343 335 333 333 330 326 324 323 318 312 313 316 320 321 323
316 318 316 317 316 324 333 335 333 328 322 324 328 337 344 341 337 337 342 344 348 352 353 353 354 357 359 2 358 351 343 335 332 330 329 330 329 326 322 322 325 327 326 328
312 315 321 326 325 328 334 333 328 325 328 323 330 336 334 332 336 342 349 350 352 351 352 356 360 1 2 3 359 357 350 345 339 334 332 332 333 334 336 335 333 334 336 336
308 312 320 327 329 329 334 337 331 332 325 322 323 324 326 328 335 342 350 354 357 356 354 359 4 6 7 7 5 3 0 358 353 349 345 341 345 341 336 339 339 338 339 340
302 306 311 316 322 321 325 331 331 330 326 319 319 319 321 326 332 340 346 350 354 357 357 359 5 9 6 5 10 11 7 3 358 355 355 350 347 346 344 344 343 341 340 339
292 297 300 303 306 310 314 317 316 319 319 318 321 324 322 329 334 339 343 346 351 356 358 360 1 1 3 3 2 2 2 2 0 358 355 353 353 353 351 349 349 346 342 341
291 292 297 297 300 300 305 306 304 306 308 308 312 316 320 324 325 328 334 340 340 344 346 347 349 351 355 1 5 5 0 359 1 359 354 354 355 353 350 343 342 343 343 342
287 289 293 297 298 294 297 301 299 298 297 298 302 307 310 314 318 317 322 326 331 335 337 337 337 342 346 348 350 351 350 350 352 354 354 354 351 349 347 343 339 337 337 339
Height
5822 5824 5823 5823 5823 5823 5823 5823 5824 5824 5824 5824 5824 5824 5824 5824 5824 5825 5824 5824 5823 5822 5820 5818 5818 5817 5816 5816 5815 5814 5814 5813 5813 5813 5813 5813 5812 5812 5812 5812 5811 5811 5811 5810
5821 5821 5821 5821 5820 5820 5820 5821 5821 5822 5821 5821 5821 5821 5821 5821 5821 5821 5820 5820 5819 5818 5817 5815 5814 5813 5812 5811 5810 5810 5809 5808 5808 5808 5807 5807 5807 5807 5807 5808 5808 5807 5806 5806
5820 5820 5819 5818 5818 5817 5817 5818 5818 5818 5818 5818 5818 5818 5818 5818 5817 5817 5816 5816 5815 5814 5813 5811 5810 5809 5808 5807 5806 5806 5805 5804 5803 5803 5802 5802 5802 5802 5803 5803 5803 5803 5803 5802
5817 5817 5816 5816 5815 5814 5814 5814 5815 5815 5815 5815 5815 5814 5815 5814 5814 5814 5813 5812 5811 5810 5808 5807 5806 5805 5804 5803 5801 5801 5800 5799 5799 5798 5798 5798 5797 5797 5798 5798 5799 5799 5799 5798
5815 5814 5813 5813 5812 5811 5811 5810 5811 5811 5811 5811 5811 5811 5812 5811 5811 5811 5810 5809 5807 5806 5805 5803 5802 5800 5799 5798 5797 5796 5794 5793 5793 5793 5793 5793 5793 5792 5793 5793 5794 5794 5794 5794
5813 5811 5811 5810 5808 5807 5807 5807 5807 5807 5807 5808 5808 5808 5809 5808 5808 5808 5806 5805 5804 5803 5801 5799 5798 5796 5794 5793 5791 5790 5789 5788 5788 5787 5787 5787 5787 5787 5788 5788 5789 5789 5789 5789
5811 5809 5808 5807 5806 5805 5804 5804 5804 5804 5804 5804 5804 5804 5805 5804 5804 5803 5802 5801 5800 5799 5797 5795 5793 5792 5790 5789 5787 5786 5784 5783 5783 5783 5783 5783 5782 5782 5783 5783 5784 5784 5785 5785
5809 5808 5806 5805 5804 5802 5801 5801 5802 5801 5801 5801 5801 5801 5802 5801 5800 5799 5798 5797 5796 5795 5793 5791 5789 5788 5786 5784 5783 5782 5780 5779 5778 5778 5778 5778 5778 5778 5778 5779 5779 5780 5780 5780
5807 5806 5804 5803 5801 5800 5799 5798 5799 5799 5798 5798 5798 5799 5799 5798 5797 5796 5795 5794 5793 5791 5789 5787 5786 5784 5782 5781 5779 5778 5776 5775 5774 5773 5774 5774 5774 5774 5774 5774 5775 5776 5776 5776
5805 5804 5803 5801 5800 5799 5798 5797 5797 5797 5796 5795 5796 5796 5796 5795 5794 5793 5792 5790 5789 5788 5786 5784 5782 5780 5778 5777 5775 5774 5773 5772 5771 5770 5770 5770 5770 5770 5770 5770 5771 5771 5772 5772
5804 5803 5802 5800 5799 5797 5797 5796 5795 5795 5795 5794 5793 5796 5794 5793 5792 5791 5789 5788 5786 5784 5782 5780 5778 5777 5775 5773 5772 5770 5769 5768 5767 5766 5766 5766 5766 5767 5767 5767 5767 5767 5767 5767
5803 5803 5801 5800 5799 5797 5796 5795 5795 5794 5794 5793 5792 5795 5791 5790 5789 5788 5787 5786 5784 5781 5779 5777 5775 5773 5771 5770 5768 5767 5766 5765 5764 5763 5763 5763 5763 5763 5764 5763 5763 5763 5763 5762
5802 5802 5801 5800 5800 5798 5795 5794 5794 5793 5792 5791 5791 5793 5789 5788 5787 5786 5784 5783 5781 5779 5777 5774 5772 5770 5768 5767 5766 5764 5763 5763 5761 5761 5760 5760 5760 5760 5760 5760 5760 5760 5759 5759
5802 5801 5801 5800 5798 5796 5795 5794 5794 5793 5791 5791 5790 5790 5789 5787 5786 5784 5782 5781 5779 5777 5774 5772 5770 5768 5766 5765 5763 5762 5761 5760 5759 5758 5758 5758 5758 5758 5758 5758 5757 5757 5756 5755
5802 5801 5800 5799 5798 5796 5796 5795 5793 5792 5791 5790 5789 5788 5787 5786 5785 5783 5781 5779 5777 5775 5773 5770 5768 5766 5764 5763 5762 5760 5759 5758 5757 5757 5756 5756 5756 5756 5756 5755 5755 5754 5753 5752
5801 5801 5800 5799 5798 5797 5796 5795 5793 5792 5791 5790 5789 5788 5786 5785 5784 5782 5780 5778 5776 5774 5771 5769 5767 5765 5763 5762 5761 5759 5758 5757 5756 5755 5755 5754 5754 5754 5753 5753 5752 5751 5750 5749
5801 5800 5799 5799 5797 5797 5796 5795 5794 5792 5791 5790 5789 5789 5786 5785 5783 5781 5779 5777 5775 5773 5771 5768 5766 5764 5763 5761 5759 5758 5757 5756 5755 5754 5754 5753 5753 5753 5752 5751 5750 5749 5748 5747
5801 5800 5799 5798 5798 5797 5798 5794 5793 5792 5791 5790 5789 5787 5786 5785 5783 5781 5779 5776 5774 5772 5770 5768 5766 5764 5762 5760 5759 5757 5756 5756 5755 5754 5753 5752 5752 5751 5751 5750 5749 5748 5746 5745
5800 5800 5798 5798 5797 5797 5796 5794 5792 5792 5791 5790 5789 5787 5785 5784 5783 5781 5779 5776 5774 5772 5770 5768 5765 5763 5762 5760 5759 5757 5756 5755 5754 5753 5752 5751 5751 5750 5749 5749 5748 5746 5745 5743
5800 5799 5798 5797 5796 5795 5796 5793 5792 5792 5790 5789 5788 5786 5785 5784 5782 5781 5778 5776 5774 5771 5769 5767 5765 5763 5762 5760 5759 5758 5756 5755 5754 5753 5752 5751 5750 5749 5748 5747 5746 5745 5744 5742
5798 5797 5797 5796 5795 5795 5794 5792 5791 5791 5791 5789 5787 5786 5785 5783 5782 5780 5778 5776 5773 5771 5769 5767 5765 5764 5762 5761 5759 5758 5757 5755 5754 5753 5752 5751 5750 5749 5748 5746 5745 5744 5743 5741
5797 5797 5796 5796 5795 5796 5793 5791 5791 5790 5788 5787 5786 5785 5784 5783 5781 5779 5778 5776 5774 5772 5770 5768 5766 5764 5763 5761 5760 5758 5757 5756 5755 5754 5753 5751 5750 5749 5748 5746 5745 5743 5742 5740
5796 5796 5795 5795 5796 5793 5792 5791 5790 5788 5788 5787 5785 5784 5783 5782 5780 5779 5777 5776 5774 5772 5770 5768 5767 5765 5764 5762 5761 5759 5758 5756 5755 5754 5753 5752 5750 5749 5747 5746 5744 5743 5741 5739
5795 5794 5794 5793 5793 5792 5791 5790 5789 5788 5787 5786 5784 5783 5782 5781 5779 5778 5777 5775 5773 5772 5770 5769 5767 5765 5764 5762 5761 5760 5758 5757 5756 5754 5753 5752 5750 5749 5747 5745 5744 5742 5741 5738
5793 5792 5792 5791 5791 5790 5790 5788 5787 5786 5785 5784 5783 5782 5781 5780 5778 5777 5776 5774 5773 5771 5770 5768 5767 5765 5764 5763 5761 5760 5759 5757 5756 5755 5753 5752 5750 5748 5747 5745 5743 5742 5740 5737
5791 5791 5790 5790 5789 5788 5788 5786 5785 5784 5784 5783 5782 5781 5780 5778 5777 5776 5775 5774 5772 5771 5769 5768 5767 5765 5764 5763 5761 5760 5758 5757 5756 5755 5753 5751 5749 5748 5746 5744 5743 5741 5739 5736